Home > Weather > Manassas > Past weeks

Flag for USA Weather for the Past 2 Weeks in Manassas, Virginia, USA

Now
63 °F

Partly sunny.


Feels Like: 63 °F
Forecast: 54 / 63 °F
Wind: 9 mph from Southeast

Location: Manassas Municipal

Current Time: May 3, 2016 at 9:53:48 PM

Latest Report: May 3, 2016 at 8:45 PM


Visibility: 8 mi

Pressure: 29.75 "Hg

Humidity: 100%

Dew Point: 63 °F

Location of ManassasLocation

Historic Weather in Manassas — Graph

°F

Manassas Temperature Yesterday

Maximum temperature yesterday: 81 °F (at 3:45 PM)
Minimum temperature yesterday: 55 °F (at 12:55 AM)
Average temperature yesterday: 62 °F

High & Low Weather Summary for the Past Weeks

 TemperatureHumidityPressure
High84 °F (Apr 19, 1:45 PM)100% (Apr 19, 2:55 AM)30.34 "Hg (Apr 19, 2:55 AM)
Low39 °F (Apr 20, 6:45 AM)15% (Apr 20, 5:45 PM)29.70 "Hg (Apr 26, 5:50 PM)
Average59 °F77%30.00 "Hg
* Reported Apr 18 8:45 PM — May 3 8:45 PM, Manassas, Weather by CustomWeather, © 2016

Note: Actual official high and low records may vary slightly from our data, if they occured in-between our weather recording intervals... More about our weather records

Advertising

Manassas Weather History for the Previous 24 Hours

Scroll right to see more
 ConditionsComfort  
Time TempWeatherWind HumidityBarometerVisibility
8:45 PM
Tue, May 3
63 °FPartly sunny.9 mph100%29.75 "Hg8 mi
6:45 PM66 °FSunny.6 mph83%29.73 "Hg10 mi
5:45 PM66 °FSunny.3 mph83%29.74 "Hg10 mi
4:45 PM66 °FThunderstorms. Mostly cloudy.3 mph83%29.75 "Hg2 mi
3:45 PM72 °FBroken clouds.9 mph61%29.73 "Hg10 mi
2:45 PM72 °FBroken clouds.6 mph61%29.75 "Hg10 mi
1:45 PM72 °FScattered clouds.N/A65%29.78 "Hg10 mi
12:45 PM70 °FPartly sunny.10 mph73%29.79 "Hg10 mi
11:45 AM68 °FBroken clouds.8 mph83%29.81 "Hg10 mi
10:45 AM68 °FBroken clouds.9 mph88%29.80 "Hg10 mi
9:45 AM66 °FFog.No wind94%29.80 "Hg4 mi
8:50 AM63 °FFog.No wind100%29.80 "Hg4 mi
7:45 AM63 °FFog.No wind100%29.78 "Hg4 mi
6:50 AM61 °FFog.No wind100%29.79 "Hg2 mi
6:15 AM63 °FOvercast.No wind100%29.80 "Hg5 mi
5:55 AM63 °FOvercast.No wind100%29.80 "Hg6 mi
5:15 AM63 °FLow clouds.No wind100%29.79 "Hg10 mi
4:55 AM63 °FMostly cloudy.No wind100%29.81 "Hg10 mi
4:35 AM63 °FLow clouds.No wind100%29.81 "Hg10 mi
4:15 AM63 °FMostly cloudy.No wind100%29.81 "Hg8 mi
3:55 AM63 °FPassing clouds.No wind100%29.80 "Hg7 mi
3:35 AM63 °FPartly cloudy.No wind100%29.81 "Hg10 mi
2:55 AM63 °FPartly cloudy.No wind100%29.82 "Hg10 mi
2:35 AM63 °FMostly cloudy.3 mph100%29.83 "Hg10 mi
2:15 AM63 °FMostly cloudy.No wind100%29.82 "Hg10 mi
1:35 AM63 °FOvercast.3 mph100%29.83 "Hg9 mi
12:55 AM63 °FPassing clouds.3 mph100%29.83 "Hg3 mi
12:15 AM64 °FClear.No wind100%29.84 "Hg10 mi
11:55 PM
Mon, May 2
64 °FPassing clouds.No wind94%29.84 "Hg10 mi
11:35 PM64 °FPassing clouds.No wind100%29.84 "Hg10 mi
10:55 PM64 °FMostly cloudy.6 mph100%29.86 "Hg10 mi
10:35 PM64 °FOvercast.7 mph100%29.89 "Hg10 mi
Weather by CustomWeather, © 2016

See weather overviewHow to use our weather pages